Regional Weather Roundup
Issued by NWS New Orleans/Baton Rouge, LA

Home | Current Version | Previous Version | Text Only | Print | Product List | Glossary On
Versions: 1 2 3 4 5 6 7 8 9 10 11 12 13 14 15 16 17 18 19 20 21 22 23 24 25 26 27
000
ASUS44 KLIX 191513
RWRLIX
NEW ORLEANS REGIONAL WEATHER ROUNDUP
NATIONAL WEATHER SERVICE NEW ORLEANS LA
900 AM CST THU JAN 19 2017

NOTE: "FAIR" INDICATES FEW OR NO CLOUDS BELOW 12,000 FEET WITH NO
      SIGNIFICANT WEATHER AND/OR OBSTRUCTIONS TO VISIBILITY.
      SKY/WX - SKY CONDITION AND SIGNIFICANT WEATHER.
      TMP - AIR TEMPERATURE.     DP    - DEWPOINT TEMPERATURE.
      RH  - RELATIVE HUMIDITY.   PRES  - PRESSURE.
      HI  - HEAT INDEX.          WCI   - WIND CHILL INDEX.

*  THESE STATIONS ARE NOT NWS OR FAA STATIONS AND ARE NOT UNDER
   NWS QUALITY CONTROL.

LAZ038-040-048-061>063-065>067-069-191600-
SOUTHEAST LOUISIANA

CITY           SKY/WX    TMP DP  RH WIND       PRES   REMARKS
N.O. AUDUBON   NOT AVBL
N.O. INTL ARPT CLOUDY    72  70  93 S9        29.96R
N.O. LAKEFRONT CLOUDY    73  69  87 S14       29.97R
N.O. DOWNTOWN*   N/A     73  69  87 S8        29.97R
RESERVE*       CLOUDY    73  71  92 S9        29.95S
SLIDELL        CLOUDY    72  69  90 S10       29.96R
BATON ROUGE    HVY RAIN  66  65  96 CALM      29.93S FOG
BOOTHVILLE     CLOUDY    68  68 100 S13       29.99R FOG
BELLE CHASSE   CLOUDY    72  70  93 S12       29.97R FOG
BOGALUSA*      CLOUDY    72  67  85 SW9       29.97R
GALLIANO*      CLOUDY    73  68  86 S10G17    29.97R
NEW ROADS*     LGT RAIN  66  64  92 CALM      29.92S
GONZALES*      CLOUDY    72  69  90 S6        29.93S
HAMMOND*       LGT RAIN  70  68  94 S7        29.96R
HOUMA*         PTSUNNY   72  70  94 S12G18    29.96R FOG
PORT FOURCHON* MOSUNNY   72  70  94 S12       29.98R FOG

$$

MSZ070-080>082-191600-
SOUTHERN MISSISSIPPI

CITY           SKY/WX    TMP DP  RH WIND       PRES   REMARKS
MCCOMB         TSTM      65  63  93 SW9       29.95R FOG
GULFPORT       FOG       68  68 100 S7        29.98R VSB 1/8
BILOXI         FOG       68  68 100 S8        29.98R VSB 1/8
PASCAGOULA     CLOUDY    71  68  90 S8        29.99R
STENNIS ARPT*  CLOUDY    70  66  88 S9G18     29.97S FOG

$$

COASTAL OBSERVATIONS
LAKE AND NEARSHORE STATIONS

STATION/POSITION TIME  TEMP    WIND        PRES    WAVE
                       AIR SEA DIR/SP/G            HT/PER
                 (UTC) (F)     (DEG/KT/KT) (MB)    (FT/S)
PASCAGOULA       1448   69     160/ 10/ 14 1015.0
WAVELAND YACHT   1448   67 65  200/  7/  9 1015.1
GRAND ISLE       1448   69 67  190/  5/  9 1015.4
SOUTHWEST PASS   1448          170/ 12/ 13   N/A
NEW CANAL        1448          190/  8/ 15   N/A
SHELL BEACH      1442   70 68  180/ 10/ 14 1015.0

OFFSHORE STATIONS

STATION/POSITION TIME  TEMP    WIND        PRES    WAVE
                       AIR SEA DIR/SP/G            HT/PER
                 (UTC) (F)     (DEG/KT/KT) (MB)    (FT/S)

$$





USA.gov is the U.S. government's official web portal to all federal, state and local government web resources and services.